Regional Weather Roundup
Issued by NWS

Home | Current Version | Previous Version | Text Only | Print | Product List | Glossary Off
Versions: 1 2 3 4 5 6 7 8 9 10 11 12 13 14 15 16 17 18 19 20 21 22 23 24 25 26 27 28 29 30 31 32 33 34 35 36 37 38 39 40 41 42 43 44 45 46 47 48 49 50

655
ASUS43 KBIS 222210
RWRND

NORTH DAKOTA REGIONAL WEATHER ROUNDUP
NATIONAL WEATHER SERVICE BISMARCK ND
500 PM CDT WED MAR 22 2017

NOTE: "FAIR" INDICATES FEW OR NO CLOUDS BELOW 12,000 FEET WITH NO
SIGNIFICANT WEATHER AND/OR OBSTRUCTIONS TO VISIBILITY.


NDZ001>003-009>011-017-222300-
NORTHWEST NORTH DAKOTA

CITY           SKY/WX    TMP DP  RH WIND       PRES   REMARKS
WILLISTON      FAIR      49  32  52 SE12      29.80S
MINOT          CLOUDY    41  29  62 SE17      29.88F
MINOT AFB      CLOUDY    38  29  70 S17       29.88F
$$

NDZ018>021-031>035-040>046-222300-
SOUTHWEST NORTH DAKOTA

CITY           SKY/WX    TMP DP  RH WIND       PRES   REMARKS
BISMARCK       FAIR      48  31  51 S16       29.92F
DICKINSON      FAIR      55  35  47 S12       29.76F
GARRISON         N/A     43  32  65 S17       29.85F
HETTINGER ARPT CLOUDY    57  37  47 S12       29.80F
$$

NDZ004>008-012>016-024-026-027-054-222300-
NORTHEAST NORTH DAKOTA

CITY           SKY/WX    TMP DP  RH WIND       PRES   REMARKS
GRAND FORKS    CLOUDY    30  17  58 SE26G33   30.17F WCI  16
GRND FRKS AFB  CLOUDY    28  21  75 SE25      30.15F WCI  14
DEVILS LAKE    PTSUNNY   30  23  75 S28G33    30.06F WCI  15
$$

NDZ022-023-025-028>030-036>039-047>053-222300-
SOUTHEAST NORTH DAKOTA

CITY           SKY/WX    TMP DP  RH WIND       PRES   REMARKS
FARGO          CLOUDY    33  15  47 SE24G35   30.20F
JAMESTOWN      CLOUDY    32  26  78 SE20G30   30.05F
$$





USA.gov is the U.S. government's official web portal to all federal, state and local government web resources and services.